Location: New Canada
(47.1017°N, 68.5042°W)
Time: 19:21:06
(UTC+00:00)

BEESAT - Visible Passes

Search period start: 30 May 2024 00:00
Search period end: 09 June 2024 00:00
Orbit: 692 x 701 km, 98.5° (Epoch: 30 May)

Date Brightness Start Highest point End Pass type
(mag) Time Alt. Az. Time Alt. Az. Time Alt. Az.
30 May ? 01:59:53 10° NE 02:04:00 29° E 02:06:07 21° SE visible
30 May ? 03:37:19 10° N 03:41:40 37° WNW 03:44:53 16° SW visible
31 May ? 02:40:31 10° NNE 02:45:16 69° ESE 02:47:43 28° S visible
31 May ? 04:19:17 10° NNW 04:22:22 17° WNW 04:25:25 10° W visible
01 Jun ? 01:44:50 10° NE 01:48:24 21° E 01:50:34 16° SE visible
01 Jun ? 03:21:42 10° N 03:26:17 50° WNW 03:29:20 20° SW visible
02 Jun ? 02:25:09 10° NNE 02:29:45 49° E 02:32:10 26° SSE visible
02 Jun ? 04:03:22 10° N 04:07:04 23° WNW 04:10:45 10° WSW visible
03 Jun ? 01:30:03 10° NE 01:32:46 15° E 01:35:00 11° ESE visible
03 Jun ? 03:06:08 10° N 03:10:52 70° WNW 03:13:46 23° SSW visible
03 Jun ? 04:46:26 10° NW 04:47:36 11° NW 04:48:46 10° WNW visible
04 Jun ? 02:09:51 10° NNE 02:14:13 35° E 02:16:35 22° SSE visible
04 Jun ? 03:47:35 10° N 03:51:44 31° WNW 03:55:22 13° WSW visible
05 Jun ? 01:16:14 10° ENE 01:17:04 10° E 01:17:54 10° E visible
05 Jun ? 02:50:38 10° NNE 02:55:24 84° ESE 02:58:11 25° SSW visible
05 Jun ? 04:29:47 10° NNW 04:32:22 15° WNW 04:34:56 10° W visible
06 Jun ? 01:54:40 10° NE 01:58:36 25° E 02:00:59 17° SE visible
06 Jun ? 03:31:53 10° N 03:36:21 42° WNW 03:39:45 16° SW visible
07 Jun ? 02:35:11 10° NNE 02:39:53 60° ESE 02:42:34 25° S visible
07 Jun ? 04:13:43 10° NNW 04:17:04 19° WNW 04:20:25 10° WSW visible
08 Jun ? 01:39:40 10° NE 01:42:57 18° E 01:45:22 13° SE visible
08 Jun ? 03:16:16 10° N 03:20:55 58° WNW 03:24:08 20° SW visible
